This is the latest recevied weather packets stored in our database for station/object KM4CBK. If no packets are shown the sender has not sent any weather packets the latest 10 day(s).
| Time | Temp. | Humidity | Pressure | Rain* | Wind** | Luminosity | Snow |
|---|---|---|---|---|---|---|---|
| 1777678815 | 15° C | 99% | 1011.9 hPa | 0.51 mm | - | 4 W/m² | - |
| 1777678512 | 15° C | 99% | 1011.6 hPa | 0.51 mm | - | 4 W/m² | - |
| 1777678209 | 15.56° C | 98% | 1011.6 hPa | 0.51 mm | - | 4 W/m² | - |
| 1777677905 | 15.56° C | 98% | 1011.6 hPa | 0 mm | - | 4 W/m² | - |
| 1777677603 | 15.56° C | 98% | 1011.7 hPa | 0.51 mm | - | 6 W/m² | - |
| 1777677301 | 15.56° C | 97% | 1011.5 hPa | 0 mm | - | 7 W/m² | - |
| 1777676999 | 15.56° C | 96% | 1011.3 hPa | 0 mm | - | 10 W/m² | - |
| 1777676697 | 15.56° C | 95% | 1011.3 hPa | 0.51 mm | - | 10 W/m² | - |
| 1777676394 | 15.56° C | 94% | 1011.2 hPa | 0.51 mm | - | 12 W/m² | - |
| 1777676092 | 15.56° C | 93% | 1011.2 hPa | 0 mm | - | 16 W/m² | - |
| 1777675787 | 15.56° C | 93% | 1011.4 hPa | 0 mm | - | 16 W/m² | - |
| 1777675485 | 15.56° C | 93% | 1011.3 hPa | 0 mm | - | 20 W/m² | - |
| 1777675182 | 15.56° C | 93% | 1011.2 hPa | 0 mm | - | 22 W/m² | - |
| 1777674878 | 15.56° C | 94% | 1011.2 hPa | 0 mm | - | 27 W/m² | - |
| 1777674574 | 15.56° C | 92% | 1011.2 hPa | 0 mm | - | 28 W/m² | - |
| 1777674272 | 15.56° C | 93% | 1011.3 hPa | 0 mm | - | 26 W/m² | - |
| 1777673968 | 16.11° C | 92% | 1011.2 hPa | 0.51 mm | - | 31 W/m² | - |
| 1777673665 | 16.11° C | 92% | 1011.3 hPa | 0.51 mm | - | 28 W/m² | - |
| 1777673363 | 16.11° C | 91% | 1011.2 hPa | 0 mm | - | 28 W/m² | - |
| 1777673060 | 16.11° C | 92% | 1011.5 hPa | 0 mm | - | 27 W/m² | - |
| 1777672756 | 16.67° C | 90% | 1011.4 hPa | 0 mm | - | 32 W/m² | - |
| 1777672453 | 16.67° C | 87% | 1010.9 hPa | 0 mm | - | 35 W/m² | - |
| 1777672148 | 16.67° C | 84% | 1010.9 hPa | 0 mm | - | 39 W/m² | - |
| 1777671843 | 16.67° C | 84% | 1010.9 hPa | 0 mm | - | 54 W/m² | - |
| 1777671539 | 17.22° C | 85% | 1011.1 hPa | 0 mm | - | 39 W/m² | - |
* Rain latest hour (hover to see other rain measurements)
** Current wind speed in m/s (hover to see current wind gust speed)